M I D A S
Marine Information and Data Acquisition System
Tripno 666 of the Zeeleeuw from 2004-03-12 07:35:30 to 2004-03-12 13:04:31
Back to CruiseResearch ActivitiesStationsMapUnderway DataData graphs

EquipmentUnitsComments
TimeDGPSUTC
LatitudeDGPSDM.mWGS84
LongitudeDGPSDM.mWGS84
SpeedMeteo Stationm/sRelative wind speed
DirectionMeteo StationdegRelative wind direction
TemperatureMeteo Stationdeg CelciusAir temperature
PressureMeteo StationPaAtmospheric pressure
HumidityMeteo Station%Relative humidity
Missing or incorrect values are displayed as -999
Metereological data collected by the RV Zeeleeuw from 2004-03-12 07:35:30 to 2004-03-12 13:04:31
Time Latitude Longitude Speed Direction Temperature Pressure Humidity
2004-03-12 07:36 51°13.679 2°55.759 7.3 99 2.2 100820 71
2004-03-12 07:37 51°13.695 2°55.736 8.3 145 2.2 100830 71
2004-03-12 07:38 51°13.768 2°55.673 2.5 114 2.2 100840 70
2004-03-12 07:39 51°13.885 2°55.59 2.6 129 2.2 100850 70
2004-03-12 07:40 51°14.009 2°55.502 6.2 129 2.2 100850 70
2004-03-12 07:41 51°14.144 2°55.399 4.5 147 2.2 100820 70
2004-03-12 07:42 51°14.288 2°55.209 0.8 133 2.2 100840 70
2004-03-12 07:43 51°14.408 2°54.946 0.5 217 2.2 100840 70
2004-03-12 07:44 51°14.526 2°54.734 2.3 111 2.3 100850 70
2004-03-12 07:45 51°14.626 2°54.587 6.3 137 2.3 100820 71
2004-03-12 07:46 51°14.7 2°54.522 8.2 128 2.3 100810 71
2004-03-12 07:47 51°14.752 2°54.488 7.1 140 2.2 100810 70
2004-03-12 07:48 51°14.791 2°54.459 9.7 132 2.2 100800 71
2004-03-12 07:49 51°14.856 2°54.392 4.6 137 2.2 100810 70
2004-03-12 07:50 51°15.016 2°54.223 6.1 129 2.2 100810 71
2004-03-12 07:51 51°15.204 2°54.015 5.7 108 2.3 100810 71
2004-03-12 07:52 51°15.415 2°53.851 5.3 113 2.3 100810 71
2004-03-12 07:53 51°15.627 2°53.672 5.8 90 2.3 100810 71
2004-03-12 07:54 51°15.837 2°53.508 6 110 2.3 100810 71
2004-03-12 07:55 51°16.051 2°53.345 6.7 123 2.4 100810 71
2004-03-12 07:56 51°16.267 2°53.184 4.6 123 2.4 100800 70
2004-03-12 07:57 51°16.482 2°53.023 5.2   2.4 100800 73
2004-03-12 07:58 51°16.695 2°52.861 6.9   2.5 100790 73
2004-03-12 07:59 51°16.904 2°52.703 7.1 120 2.5 100800 72
2004-03-12 08:00 51°17.116 2°52.543 5.4 107 2.4 100800 69
2004-03-12 08:01 51°17.322 2°52.362 5.5 115 2.4 100800 70
2004-03-12 08:02 51°17.514 2°52.139 5 143 2.4 100750 70
2004-03-12 08:03 51°17.69 2°51.875 4.1 44 2.5 100750 72
2004-03-12 08:04 51°17.858 2°51.606 3.2 142 2.5 100750 70
2004-03-12 08:05 51°18.025 2°51.338 4.7 147 2.5 100740 72
2004-03-12 08:06 51°18.198 2°51.066 2.8 123 2.5 100740 71
2004-03-12 08:07 51°18.351 2°50.759 3 154 2.6 100750 72
2004-03-12 08:08 51°18.496 2°50.449 3.1 145 2.6 100740 71
2004-03-12 08:09 51°18.645 2°50.142 4.5 158 2.6 100740 71
2004-03-12 08:10 51°18.79 2°49.842 2.6 165 2.6 100740 70
2004-03-12 08:11 51°18.939 2°49.53 3.9   2.6 100740 72
2004-03-12 08:12 51°19.086 2°49.222 5.4 163 2.7 100730 72
2004-03-12 08:13 51°19.238 2°48.903 3.9 162 2.6 100730 69
2004-03-12 08:14 51°19.368 2°48.581 4.5 220 2.7 100730 70
2004-03-12 08:15 51°19.469 2°48.224 3.4 231 2.7 100730 70
2004-03-12 08:16 51°19.573 2°47.867 4.1 231 2.7 100730 71
2004-03-12 08:17 51°19.683 2°47.505 1.8 278 2.8 100730 71
2004-03-12 08:18 51°19.79 2°47.161 5.5 227 2.8 100730 70
2004-03-12 08:19 51°19.876 2°46.794 5.6 234 2.8 100790 71
2004-03-12 08:20 51°19.954 2°46.433 5.3 253 2.8 100740 71
2004-03-12 08:21 51°19.991 2°46.048 9.8 264 2.8 100760 70
2004-03-12 08:22 51°19.908 2°45.688 12.5 300 2.8 100730 72
2004-03-12 08:23 51°19.789 2°45.348 12.7 296 2.9 100730 72
2004-03-12 08:24 51°19.674 2°44.995 11.9 301 2.9 100740 71
2004-03-12 08:25 51°19.563 2°44.644 13.4 302 2.9 100750 72
2004-03-12 08:26 51°19.458 2°44.294 13.3   2.9 100750 71
2004-03-12 08:27 51°19.352 2°43.94 13.9 296 3 100750 71
2004-03-12 08:28 51°19.241 2°43.593 11.7 296 3 100750 71
2004-03-12 08:29 51°19.136 2°43.254 13.7 308 3 100760 70
2004-03-12 08:30 51°18.988 2°42.95 14.6 310 3 100760 71
2004-03-12 08:31 51°18.847 2°42.641 13.8 301 3 100790 71
2004-03-12 08:32 51°18.727 2°42.317 15.5 302 3 100810 71
2004-03-12 08:33 51°18.6 2°41.986 12.8 297 3 100790 71
2004-03-12 08:34 51°18.473 2°41.658 14 306 3 100790 71
2004-03-12 08:35 51°18.351 2°41.331 12.9   3 100790 71
2004-03-12 08:36 51°18.226 2°40.99 13.7 302 2.9 100800 72
2004-03-12 08:37 51°18.106 2°40.66 14.2 306 2.9 100790 71
2004-03-12 08:38 51°17.979 2°40.318 13.9 307 2.9 100790 71
2004-03-12 08:39 51°17.867 2°40.018 12.6 294 3 100790 71
2004-03-12 08:40 51°17.791 2°39.866 12.4 302 2.9 100790 71
2004-03-12 08:41 51°17.768 2°39.812 9.8 320 2.9 100800 70
2004-03-12 08:42 51°17.759 2°39.768 9.6 320 2.9 100790 70
2004-03-12 08:43 51°17.753 2°39.724 10.3 306 2.9 100790 71
2004-03-12 08:44 51°17.75 2°39.678 10.1 310 3 100790 71
2004-03-12 08:45 51°17.749 2°39.631 10.2 302 2.9 100790 70
2004-03-12 08:46 51°17.75 2°39.581 9.1 290 3 100790 72
2004-03-12 08:47 51°17.752 2°39.531 8.9 284 3 100800 71
2004-03-12 08:48 51°17.753 2°39.482 8.5 284 3 100800 72
2004-03-12 08:49 51°17.752 2°39.434 9.7 287 3 100800 72
2004-03-12 08:50 51°17.751 2°39.386 8.8 291 3 100810 72
2004-03-12 08:51 51°17.749 2°39.338 10 296 3 100810 71
2004-03-12 08:52 51°17.745 2°39.29 8.9 310 3 100810 71
2004-03-12 08:53 51°17.739 2°39.243 8.5 41 3.1 100810 73
2004-03-12 08:54 51°17.731 2°39.199 8.5 319 3.1 100810 72
2004-03-12 08:55 51°17.723 2°39.156 10.4 324 3.1 100800 71
2004-03-12 08:56 51°17.697 2°39.135 10.5 9 3 100800 70
2004-03-12 08:57 51°17.692 2°39.188 12.1 65 3.1 100780 71
2004-03-12 08:58 51°17.718 2°39.29 10.9   3 100780 70
2004-03-12 08:59 51°17.717 2°39.397 9.8 39 3.1 100790 71
2004-03-12 09:00 51°17.717 2°39.403 9.3 35 3 100800 71
2004-03-12 09:01 51°17.72 2°39.388 8.4 24 3 100800 70
2004-03-12 09:02 51°17.724 2°39.361 9.5 22 3 100800 69
2004-03-12 09:03 51°17.727 2°39.357 11.8 42 3 100790 69
2004-03-12 09:04 51°17.718 2°39.428 12.2 39 3 100800 70
2004-03-12 09:05 51°17.69 2°39.521 11.6 19 3 100770 69
2004-03-12 09:06 51°17.651 2°39.557 11 356 3.1 100790 71
2004-03-12 09:07 51°17.616 2°39.565 9.6 9 3.1 100790 69
2004-03-12 09:08 51°17.588 2°39.568 10 2 3.1 100780 70
2004-03-12 09:09 51°17.563 2°39.573 10.7 9 3.1 100800 70
2004-03-12 09:10 51°17.535 2°39.606 11.3 17 3.1 100790 69
2004-03-12 09:11 51°17.504 2°39.657 11.8 24 3.1 100790 70
2004-03-12 09:12 51°17.466 2°39.701 12 4 3.2 100810 71
2004-03-12 09:13 51°17.412 2°39.695 11.1 340 3.2 100800 70
2004-03-12 09:14 51°17.354 2°39.67 10.4 336 3.2 100810 70
2004-03-12 09:15 51°17.295 2°39.633 10.7 329 3.2 100790 69
2004-03-12 09:16 51°17.241 2°39.584 10.1 324 3.2 100800 70
2004-03-12 09:17 51°17.19 2°39.538 10.1 335 3.2 100810 70
2004-03-12 09:18 51°17.141 2°39.496 12.1 326 3.2 100790 69
2004-03-12 09:19 51°17.092 2°39.45 11.1 329 3.2 100780 69
2004-03-12 09:20 51°17.043 2°39.404 11.2 325 3.2 100800 69
2004-03-12 09:21 51°16.997 2°39.359 11.1 331 3.2 100800 69
2004-03-12 09:22 51°16.95 2°39.315 11.2 335 3.2 100780 68
2004-03-12 09:23 51°16.903 2°39.276 10.5   3.2 100780 69
2004-03-12 09:24 51°16.856 2°39.239 11.4 339 3.2 100780 69
2004-03-12 09:25 51°16.806 2°39.204 11.4 333 3.2 100780 69
2004-03-12 09:26 51°16.759 2°39.174 11.1 338 3.2 100780 68
2004-03-12 09:27 51°16.709 2°39.133 10.8 327 3.2 100790 70
2004-03-12 09:28 51°16.659 2°39.084 12.2 323 3.2 100760 68
2004-03-12 09:29 51°16.61 2°39.026 13.1 321 3.2 100760 69
2004-03-12 09:30 51°16.563 2°38.962 11.7   3.2 100770 68
2004-03-12 09:31 51°16.515 2°38.903 9.9 320 3.2 100770 69
2004-03-12 09:32 51°16.468 2°38.848 10.1 328 3.3 100770 69
2004-03-12 09:33 51°16.42 2°38.798 11.6 327 3.3 100780 69
2004-03-12 09:34 51°16.373 2°38.752 11.8 334 3.2 100780 68
2004-03-12 09:35 51°16.325 2°38.709 12   3.3 100770 69
2004-03-12 09:36 51°16.276 2°38.671 10.4 327 3.3 100770 69
2004-03-12 09:37 51°16.228 2°38.638 12.2 343 3.3 100750 70
2004-03-12 09:38 51°16.18 2°38.609 10.9 347 3.3 100760 69
2004-03-12 09:39 51°16.132 2°38.583 11.8 339 3.3 100760 68
2004-03-12 09:40 51°16.08 2°38.552 9.2 339 3.3 100760 68
2004-03-12 09:41 51°16.029 2°38.516 13 329 3.3 100740 69
2004-03-12 09:42 51°15.976 2°38.471 11.1   3.3 100750 68
2004-03-12 09:43 51°15.923 2°38.418 11.9 324 3.3 100750 69
2004-03-12 09:44 51°15.87 2°38.36 12.1 322 3.3 100750 69
2004-03-12 09:45 51°15.818 2°38.3 10.2 327 3.3 100760 69
2004-03-12 09:46 51°15.764 2°38.242 10.9 324 3.3 100750 70
2004-03-12 09:47 51°15.711 2°38.181 11.7   3.3 100770 68
2004-03-12 09:48 51°15.659 2°38.12 13 325 3.3 100750 69
2004-03-12 09:49 51°15.606 2°38.057 9.8 322 3.3 100750 69
2004-03-12 09:50 51°15.556 2°37.981 12.5 300 3.3 100740 69
2004-03-12 09:51 51°15.519 2°37.872 10.5 276 3.3 100740 69
2004-03-12 09:52 51°15.498 2°37.741 9.9 261 3.3 100740 69
2004-03-12 09:53 51°15.49 2°37.615 9.4 261 3.3 100750 70
2004-03-12 09:54 51°15.484 2°37.514 8.4 256 3.4 100740 70
2004-03-12 09:55 51°15.477 2°37.427 9.9 269 3.4 100740 70
2004-03-12 09:56 51°15.46 2°37.342 10.4 298 3.4 100730 72
2004-03-12 09:57 51°15.396 2°37.307 12.4 9 3.4 100720 71
2004-03-12 09:58 51°15.306 2°37.452 15.4 10 3.5 100700 71
2004-03-12 09:59 51°15.17 2°37.679 18.4 12 3.5 100690 69
2004-03-12 10:00 51°15.029 2°37.925 15.9 16 3.5 100690 70
2004-03-12 10:01 51°14.882 2°38.178 18 12 3.6 100690 71
2004-03-12 10:02 51°14.73 2°38.422 16.7   3.5 100690 67
2004-03-12 10:03 51°14.571 2°38.646 17.3 12 3.5 100700 69
2004-03-12 10:04 51°14.4 2°38.862 15.6 3 3.5 100700 69
2004-03-12 10:05 51°14.19 2°38.977 18.2   3.6 100700 70
2004-03-12 10:06 51°13.966 2°38.965 15.6 333 3.6 100680 69
2004-03-12 10:07 51°13.737 2°38.847 15 333 3.6 100680 69
2004-03-12 10:08 51°13.528 2°38.649 14.3 322 3.6 100680 69
2004-03-12 10:09 51°13.322 2°38.437 15 317 3.6 100700 69
2004-03-12 10:10 51°13.118 2°38.225 13 323 3.6 100680 70
2004-03-12 10:11 51°12.91 2°38.011 14.2 324 3.6 100680 69
2004-03-12 10:12 51°12.703 2°37.801 16.2 321 3.6 100690 70
2004-03-12 10:13 51°12.492 2°37.587 15.2 321 3.6 100680 70
2004-03-12 10:14 51°12.289 2°37.384 16.7 322 3.7 100680 70
2004-03-12 10:15 51°12.08 2°37.175 17.1 321 3.7 100670 69
2004-03-12 10:16 51°11.874 2°36.974 15.5 321 3.7 100680 69
2004-03-12 10:17 51°11.672 2°36.77 15.4 324 3.7 100670 68
2004-03-12 10:18 51°11.464 2°36.564 14.6 326 3.7 100680 69
2004-03-12 10:19 51°11.247 2°36.375 14.2 333 3.8 100670 69
2004-03-12 10:20 51°11.036 2°36.198 16.7 328 3.8 100670 69
2004-03-12 10:21 51°10.817 2°36.036 13.6 331 3.8 100670 68
2004-03-12 10:22 51°10.594 2°35.872 15.5 323 3.9 100660 68
2004-03-12 10:23 51°10.377 2°35.712 13.2 332 3.9 100670 69
2004-03-12 10:24 51°10.165 2°35.547 16 332 3.9 100680 68
2004-03-12 10:25 51°9.935 2°35.373 15.5 324 3.9 100670 68
2004-03-12 10:26 51°9.723 2°35.183 15.7 329 4 100670 70
2004-03-12 10:27 51°9.5 2°35.037 14.9 337 3.9 100650 67
2004-03-12 10:28 51°9.278 2°34.896 16.8 337 3.9 100650 68
2004-03-12 10:29 51°9.049 2°34.753 15.3 338 3.9 100650 67
2004-03-12 10:30 51°8.868 2°34.647 13 330 4 100690 67
2004-03-12 10:31 51°8.791 2°34.545 10.4 287 4 100710 68
2004-03-12 10:32 51°8.769 2°34.455 8.9 267 4 100710 67
2004-03-12 10:33 51°8.752 2°34.373 8.6 275 4 100700 67
2004-03-12 10:34 51°8.725 2°34.278 10.3 294 4.1 100710 68
2004-03-12 10:35 51°8.688 2°34.176 11.5 284 4.1 100700 67
2004-03-12 10:36 51°8.644 2°34.086 9.6 299 4.1 100710 69
2004-03-12 10:37 51°8.602 2°34 9.9 301 4.1 100710 69
2004-03-12 10:38 51°8.565 2°33.918 9 292 4.1 100710 67
2004-03-12 10:39 51°8.53 2°33.839 10.4 292 4.1 100710 67
2004-03-12 10:40 51°8.497 2°33.763 9.2 297 4.1 100710 66
2004-03-12 10:41 51°8.458 2°33.688 8.7 293 4 100710 67
2004-03-12 10:42 51°8.422 2°33.598 10.7 268 4.1 100720 67
2004-03-12 10:43 51°8.383 2°33.499 8.5 294 4.1 100710 68
2004-03-12 10:44 51°8.343 2°33.404 8.3 285 4.1 100710 69
2004-03-12 10:45 51°8.306 2°33.319 8.8 293 4.1 100700 68
2004-03-12 10:46 51°8.268 2°33.244 10.7 302 4.2 100700 69
2004-03-12 10:47 51°8.232 2°33.172 9.1 303 4.2 100700 69
2004-03-12 10:48 51°8.191 2°33.107 9.9 304 4.2 100700 68
2004-03-12 10:49 51°8.152 2°33.044 8.3 304 4.2 100700 68
2004-03-12 10:50 51°8.11 2°32.982 11.2 304 4.3 100690 70
2004-03-12 10:51 51°8.069 2°32.908 11.9 296 4.3 100680 68
2004-03-12 10:52 51°8.03 2°32.832 10.3 288 4.3 100680 68
2004-03-12 10:53 51°7.991 2°32.752 9.5 286 4.3 100670 67
2004-03-12 10:54 51°7.953 2°32.667 8.4 284 4.3 100680 67
2004-03-12 10:55 51°7.921 2°32.577 9.7 267 4.3 100680 68
2004-03-12 10:56 51°7.892 2°32.483 9.8 276 4.3 100670 68
2004-03-12 10:57 51°7.863 2°32.39 10.3 274 4.3 100670 68
2004-03-12 10:58 51°7.834 2°32.297 10.3 264 4.3 100670 68
2004-03-12 10:59 51°7.804 2°32.207 9.1 261 4.3 100670 68
2004-03-12 11:00 51°7.776 2°32.11 10.6   4.3 100670 67
2004-03-12 11:01 51°7.751 2°32.012 7.3 260 4.3 100670 67
2004-03-12 11:02 51°7.728 2°31.914 8.6 257 4.3 100660 69
2004-03-12 11:03 51°7.708 2°31.818 7 252 4.2 100660 67
2004-03-12 11:04 51°7.691 2°31.718 6.6 242 4.3 100660 69
2004-03-12 11:05 51°7.68 2°31.615 7.3 239 4.3 100660 69
2004-03-12 11:06 51°7.682 2°31.516 9.2 216 4.3 100660 69
2004-03-12 11:07 51°7.696 2°31.422 7.4 198 4.3 100670 67
2004-03-12 11:08 51°7.723 2°31.345 7.5 155 4.3 100670 67
2004-03-12 11:09 51°7.758 2°31.297 8.4 126 4.4 100670 68
2004-03-12 11:10 51°7.797 2°31.278 8.9 120 4.3 100670 68
2004-03-12 11:11 51°7.847 2°31.276 9.5 119 4.4 100670 69
2004-03-12 11:12 51°7.897 2°31.292 9.2 107 4.3 100670 67
2004-03-12 11:13 51°7.943 2°31.323 8.9 105 4.3 100680 68
2004-03-12 11:14 51°7.98 2°31.365 9.1 101 4.4 100670 69
2004-03-12 11:15 51°8.006 2°31.415 11.1 83 4.4 100660 69
2004-03-12 11:16 51°8.019 2°31.468 7.7 74 4.4 100660 69
2004-03-12 11:17 51°8.019 2°31.497 10 63 4.4 100660 70
2004-03-12 11:18 51°8.015 2°31.506 8.5 74 4.4 100650 69
2004-03-12 11:19 51°8.011 2°31.51 10 60 4.4 100650 68
2004-03-12 11:20 51°8.025 2°31.667 12.3 43 4.4 100610 68
2004-03-12 11:21 51°8.046 2°31.943 12.7 45 4.4 100600 68
2004-03-12 11:22 51°8.069 2°32.236 14.2 37 4.4 100600 68
2004-03-12 11:23 51°8.091 2°32.528 13.2 40 4.4 100610 68
2004-03-12 11:24 51°8.115 2°32.822 13.9 44 4.5 100600 68
2004-03-12 11:25 51°8.122 2°32.995 10 61 4.4 100630 67
2004-03-12 11:26 51°8.129 2°33.01 10.3 103 4.4 100630 67
2004-03-12 11:27 51°8.138 2°32.995 8.4 112 4.5 100660 68
2004-03-12 11:28 51°8.144 2°32.979 10 106 4.5 100660 68
2004-03-12 11:29 51°8.146 2°32.962 8.5 103 4.5 100660 69
2004-03-12 11:30 51°8.147 2°32.944 8.3 96 4.6 100660 69
2004-03-12 11:31 51°8.146 2°32.925 7.9 100 4.6 100660 71
2004-03-12 11:32 51°8.145 2°32.903 7.4 97 4.6 100660 69
2004-03-12 11:33 51°8.144 2°32.881 10.1 88 4.6 100660 70
2004-03-12 11:34 51°8.143 2°32.855 10.1 91 4.6 100640 67
2004-03-12 11:35 51°8.143 2°32.828 8.1   4.5 100640 68
2004-03-12 11:36 51°8.142 2°32.802 9.3 99 4.6 100640 69
2004-03-12 11:37 51°8.142 2°32.775 9.6 100 4.6 100640 69
2004-03-12 11:38 51°8.141 2°32.746 8.7 93 4.6 100640 70
2004-03-12 11:39 51°8.141 2°32.717 11.5 94 4.6 100640 69
2004-03-12 11:40 51°8.142 2°32.686 10.8 94 4.6 100640 68
2004-03-12 11:41 51°8.142 2°32.656 9.5 92 4.6 100640 69
2004-03-12 11:42 51°8.141 2°32.628 8.6 95 4.6 100650 70
2004-03-12 11:43 51°8.14 2°32.6 8.7 91 4.6 100640 70
2004-03-12 11:44 51°8.139 2°32.572 9.2 93 4.6 100640 71
2004-03-12 11:45 51°8.172 2°32.669 12.7 55 4.6 100630 70
2004-03-12 11:46 51°8.26 2°32.945 14.5   4.6 100570 68
2004-03-12 11:47 51°8.352 2°33.232 13.3 57 4.7 100580 69
2004-03-12 11:48 51°8.446 2°33.524 13.6 52 4.6 100570 69
2004-03-12 11:49 51°8.539 2°33.813 14.4 55 4.7 100570 69
2004-03-12 11:50 51°8.631 2°34.101 12.1 48 4.6 100550 68
2004-03-12 11:51 51°8.724 2°34.393 13 54 4.6 100560 68
2004-03-12 11:52 51°8.81 2°34.679 12.8 67 4.6 100560 69
2004-03-12 11:53 51°8.898 2°34.969 14.1   4.6 100570 70
2004-03-12 11:54 51°8.987 2°35.266 14.2 58 4.6 100570 69
2004-03-12 11:55 51°9.074 2°35.557 14.7 60 4.6 100570 69
2004-03-12 11:56 51°9.159 2°35.845 14.6 63 4.6 100570 69
2004-03-12 11:57 51°9.247 2°36.139 14 54 4.6 100570 69
2004-03-12 11:58 51°9.334 2°36.433 14.4 56 4.6 100570 69
2004-03-12 11:59 51°9.422 2°36.734 13.1 60 4.6 100550 68
2004-03-12 12:00 51°9.507 2°37.033 14.2 56 4.6 100570 69
2004-03-12 12:01 51°9.591 2°37.329 15.8 60 4.7 100570 69
2004-03-12 12:02 51°9.678 2°37.63 13.3 52 4.7 100560 68
2004-03-12 12:03 51°9.761 2°37.935 14.7 51 4.7 100570 69
2004-03-12 12:04 51°9.837 2°38.25 14.7   4.7 100560 68
2004-03-12 12:05 51°9.901 2°38.56 14.8 56 4.7 100560 67
2004-03-12 12:06 51°9.966 2°38.876 13.1 49 4.7 100570 67
2004-03-12 12:07 51°10.034 2°39.194 13.9 56 4.7 100550 68
2004-03-12 12:08 51°10.102 2°39.516 15.3 47 4.7 100560 67
2004-03-12 12:09 51°10.166 2°39.827 13.5 52 4.7 100550 67
2004-03-12 12:10 51°10.232 2°40.145 12.8 49 4.8 100560 66
2004-03-12 12:11 51°10.296 2°40.464 12.2 43 4.8 100570 67
2004-03-12 12:12 51°10.362 2°40.782 14.6 52 4.8 100570 67
2004-03-12 12:13 51°10.426 2°41.1 13.7 51 4.8 100560 66
2004-03-12 12:14 51°10.491 2°41.423 13.8 48 4.8 100570 66
2004-03-12 12:15 51°10.555 2°41.74 15.1 57 4.8 100570 68
2004-03-12 12:16 51°10.619 2°42.053 14.2 50 4.8 100560 67
2004-03-12 12:17 51°10.683 2°42.377 16.2 57 4.8 100560 68
2004-03-12 12:18 51°10.746 2°42.698 14.9 50 4.8 100550 67
2004-03-12 12:19 51°10.806 2°43.012 14.8   4.8 100550 67
2004-03-12 12:20 51°10.876 2°43.326 14.7 52 4.8 100550 68
2004-03-12 12:21 51°10.947 2°43.642 13.5 55 4.8 100550 67
2004-03-12 12:22 51°11.019 2°43.964 16.2 56 4.8 100550 67
2004-03-12 12:23 51°11.095 2°44.272 14.6 49 4.9 100550 68
2004-03-12 12:24 51°11.175 2°44.591 15 61 4.8 100550 66
2004-03-12 12:25 51°11.254 2°44.907 14.2 45 4.9 100550 66
2004-03-12 12:26 51°11.333 2°45.221 13.5 54 4.9 100550 66
2004-03-12 12:27 51°11.412 2°45.527 14.7 54 4.9 100550 66
2004-03-12 12:28 51°11.491 2°45.838 14.3 57 4.9 100550 66
2004-03-12 12:29 51°11.573 2°46.154 14.5 54 4.9 100550 66
2004-03-12 12:30 51°11.649 2°46.46 13.6 52 4.9 100560 66
2004-03-12 12:31 51°11.728 2°46.777 13.1 53 5 100540 66
2004-03-12 12:32 51°11.805 2°47.088 15.4 45 5 100560 66
2004-03-12 12:33 51°11.882 2°47.39 13.8 67 5 100550 65
2004-03-12 12:34 51°11.979 2°47.69 14.1 58 5 100550 65
2004-03-12 12:35 51°12.077 2°48 10.9 65 5 100550 65
2004-03-12 12:36 51°12.173 2°48.302 13.3 57 5 100560 65
2004-03-12 12:37 51°12.266 2°48.598 14.8 55 4.9 100560 65
2004-03-12 12:38 51°12.359 2°48.896 12.7 52 4.9 100550 65
2004-03-12 12:39 51°12.46 2°49.193 14.2 59 5 100540 65
2004-03-12 12:40 51°12.562 2°49.478 13.6   5 100540 64
2004-03-12 12:41 51°12.672 2°49.771 12.8 57 5 100550 66
2004-03-12 12:42 51°12.78 2°50.053 13.1 66 5 100560 65
2004-03-12 12:43 51°12.89 2°50.346 14.3 61 5 100560 64
2004-03-12 12:44 51°12.998 2°50.636 11.4 57 5 100570 65
2004-03-12 12:45 51°13.105 2°50.925 12.6 55 5 100560 64
2004-03-12 12:46 51°13.221 2°51.198 13 66 5 100550 63
2004-03-12 12:47 51°13.339 2°51.477 11.5 56 5.1 100560 64
2004-03-12 12:48 51°13.425 2°51.695 8.9 67 5.1 100640 64
2004-03-12 12:49 51°13.453 2°51.792 11.9 83 5.1 100640 63
2004-03-12 12:50 51°13.469 2°51.841 8.7 89 5.1 100630 64
2004-03-12 12:51 51°13.479 2°51.867 7.2 97 5.2 100630 65
2004-03-12 12:52 51°13.487 2°51.879 7.8 73 5.2 100630 65
2004-03-12 12:53 51°13.494 2°51.881 10.2 91 5.2 100630 65
2004-03-12 12:54 51°13.532 2°51.943 11.7 95 5.2 100600 64
2004-03-12 12:55 51°13.65 2°52.175 8.9 69 5.2 100560 63
2004-03-12 12:56 51°13.783 2°52.444 12.7 57 5.2 100560 64
2004-03-12 12:57 51°13.918 2°52.717 13.4 53 5.2 100560 63
2004-03-12 12:58 51°14.054 2°52.99 11.3 49 5.2 100560 63
2004-03-12 12:59 51°14.18 2°53.275 10.9 63 5.3 100550 63
2004-03-12 13:00 51°14.285 2°53.579 12.8 59 5.3 100540 63
2004-03-12 13:01 51°14.376 2°53.897 14 45 5.3 100560 63
2004-03-12 13:02 51°14.423 2°54.239 12.1 40 5.3 100560 63
2004-03-12 13:03 51°14.44 2°54.586 13.7 29 5.3 100560 62